Change the Weather History Date:

Saturday, August 17, 2013

  Actual Average Record
Temperature  
Mean Temperature 58 °F 59 °F  
Max Temperature 61 °F 65 °F 83 °F (1977)
Min Temperature 55 °F 53 °F 45 °F (1970)
Degree Days  
Heating Degree Days 7    
Month to date heating degree days 71 96  
Since 1 June heating degree days 442 600  
Since 1 July heating degree days 222 302  
Cooling Degree Days 0    
Month to date cooling degree days 2  
Year to date cooling degree days 22  
Since 1 June cooling degree days 22  
Growing Degree Days 8 (Base 50)    
Moisture  
Dew Point 57 °F    
Average Humidity 0    
Maximum Humidity 0    
Minimum Humidity 0    
Precipitation  
Precipitation 0.55 in 0.23 in 1.35 in (1993)
Month to date precipitation 1.48 3.34  
Year to date precipitation 48.37 51.29  
Snow  
Snow 0.00 in 0.00 in 0.00 in (2014)
Month to date snowfall 0.0 0.0  
Since 1 June snowfall 0.0 0.0  
Since 1 July snowfall 0.0  
Snow Depth 0.00 in    
Sea Level Pressure  
Sea Level Pressure 29.80 in    
Wind  
Wind Speed 12 mph (SE)    
Max Wind Speed 26 mph    
Max Gust Speed 38 mph    
Visibility 7 miles    
Events Rain    
T = Trace of Precipitation, MM = Missing Value Source: NWS Daily Summary

Daily Weather History Graph

Daily Weather History Graph

Search for Another Location

Airport or City:

Trip Planner

Search our weather history database for the weather conditions in past years. The results will help you decide how hot, cold, wet, or windy it might be!

Date:

Astronomy

Aug. 17, 2013 Rise Set
Actual Time 5:25 AM AKDT 8:13 PM AKDT
Civil Twilight 4:43 AM AKDT 8:55 PM AKDT
Nautical Twilight 3:49 AM AKDT 9:48 PM AKDT
Astronomical Twilight 2:37 AM AKDT 10:58 PM AKDT
Moon 5:51 PM AKDT (8/17) 1:15 AM AKDT (8/17)
Length of Visible Light 16h 11m
Length of Day
14h 48m
Waxing Gibbous, 85% of the Moon is Illuminated
Aug 17
Waxing Gibbous
Aug 20
Full
Aug 28
Last Quarter
Sep 5
New
Sep 12
First Quarter

Hourly Weather History & Observations

Time (AKDT) Temp. Dew Point Humidity Pressure Visibility Wind Dir Wind Speed Gust Speed Precip Events Conditions
12:53 AM 59.0 °F 57.9 °F 96% 29.85 in 6.0 mi SE 6.9 mph - 0.01 in Rain Light Rain
1:53 AM 59.0 °F 57.9 °F 96% 29.84 in 10.0 mi SE 5.8 mph - 0.00 in   Overcast
2:53 AM 59.0 °F 57.0 °F 93% 29.83 in 10.0 mi SE 6.9 mph - N/A   Overcast
3:22 AM 59.0 °F 57.2 °F 94% 29.83 in 10.0 mi SE 6.9 mph - N/A   Overcast
3:53 AM 57.9 °F 57.0 °F 97% 29.83 in 10.0 mi SE 6.9 mph - N/A   Overcast
4:08 AM 57.2 °F 57.2 °F 100% 29.83 in 5.0 mi SE 9.2 mph - 0.00 in   Overcast
4:53 AM 57.9 °F 57.0 °F 97% 29.83 in 4.0 mi SSE 11.5 mph 17.3 mph 0.05 in Rain Rain
5:53 AM 57.9 °F 57.0 °F 97% 29.83 in 10.0 mi SSE 11.5 mph 18.4 mph 0.01 in Rain Light Rain
6:53 AM 57.9 °F 57.0 °F 97% 29.83 in 10.0 mi SE 12.7 mph - 0.00 in   Overcast
7:24 AM 57.2 °F 57.2 °F 100% 29.83 in 2.0 mi SSE 9.2 mph 18.4 mph 0.01 in Rain Light Rain
7:40 AM 57.2 °F 57.2 °F 100% 29.83 in 1.8 mi SE 10.4 mph 19.6 mph 0.04 in Rain Light Rain
7:48 AM 57.2 °F 57.2 °F 100% 29.83 in 2.5 mi SE 10.4 mph - 0.04 in Rain Light Rain
7:53 AM 57.9 °F 57.0 °F 97% 29.83 in 2.5 mi SE 12.7 mph 19.6 mph 0.05 in Rain Light Rain
8:01 AM 57.2 °F 57.2 °F 100% 29.83 in 6.0 mi SE 9.2 mph 19.6 mph 0.00 in Rain Light Rain
8:53 AM 57.9 °F 55.9 °F 93% 29.83 in 8.0 mi SE 12.7 mph 21.9 mph 0.02 in Rain Light Rain
9:53 AM 57.9 °F 55.9 °F 93% 29.83 in 6.0 mi SE 16.1 mph 27.6 mph 0.01 in Rain Light Rain
10:12 AM 57.2 °F 55.4 °F 94% 29.82 in 2.5 mi SE 15.0 mph 23.0 mph 0.03 in Rain Rain
10:20 AM 57.2 °F 55.4 °F 94% 29.82 in 5.0 mi SE 13.8 mph 24.2 mph 0.04 in Rain Light Rain
10:35 AM 57.2 °F 55.4 °F 94% 29.82 in 10.0 mi SE 16.1 mph 23.0 mph 0.04 in Rain Light Rain
10:53 AM 57.9 °F 55.9 °F 93% 29.83 in 5.0 mi SE 16.1 mph 24.2 mph 0.05 in Rain Light Rain
11:26 AM 57.2 °F 55.4 °F 94% 29.82 in 2.5 mi SE 15.0 mph 23.0 mph 0.02 in Rain Rain
11:33 AM 57.2 °F 57.2 °F 100% 29.82 in 3.0 mi SE 13.8 mph 23.0 mph 0.03 in Rain Light Rain
11:51 AM 59.0 °F 57.2 °F 94% 29.81 in 10.0 mi SE 11.5 mph 19.6 mph 0.03 in   Overcast
11:53 AM 59.0 °F 57.0 °F 93% 29.82 in 10.0 mi SE 13.8 mph 19.6 mph 0.03 in Rain Light Rain
12:53 PM 60.1 °F 55.9 °F 86% 29.81 in 10.0 mi SE 13.8 mph 26.5 mph 0.01 in   Overcast
1:53 PM 60.1 °F 57.0 °F 90% 29.79 in 10.0 mi SE 19.6 mph 29.9 mph 0.00 in   Overcast
2:53 PM 60.1 °F 57.0 °F 90% 29.78 in 9.0 mi SE 20.7 mph 31.1 mph 0.01 in Rain Light Rain
3:36 PM 60.8 °F 57.2 °F 88% 29.77 in 7.0 mi SSE 18.4 mph 33.4 mph 0.00 in Rain Light Rain
3:53 PM 60.1 °F 57.0 °F 90% 29.77 in 6.0 mi SE 19.6 mph 28.8 mph 0.01 in Rain Light Rain
4:02 PM 59.0 °F 57.2 °F 94% 29.76 in 3.0 mi SE 20.7 mph 31.1 mph 0.00 in Rain Light Rain
4:06 PM 59.0 °F 57.2 °F 94% 29.76 in 2.0 mi SE 18.4 mph 31.1 mph 0.03 in Rain Heavy Rain
4:08 PM 59.0 °F 57.2 °F 94% 29.76 in 1.8 mi SE 18.4 mph 31.1 mph 0.04 in Rain Heavy Rain
4:26 PM 59.0 °F 57.2 °F 94% 29.75 in 1.0 mi SE 20.7 mph 36.8 mph 0.20 in Rain Heavy Rain
4:45 PM 59.0 °F 57.2 °F 94% 29.75 in 3.0 mi SE 26.5 mph 35.7 mph 0.24 in Rain Light Rain
4:53 PM 57.9 °F 57.0 °F 97% 29.75 in 4.0 mi SSE 15.0 mph 35.7 mph 0.25 in Rain Light Rain
5:53 PM 57.9 °F 57.0 °F 97% 29.78 in 10.0 mi SSE 8.1 mph - 0.02 in   Overcast
6:01 PM 57.2 °F 57.2 °F 100% 29.78 in 7.0 mi SSE 10.4 mph - 0.01 in Rain Light Rain
6:11 PM 57.2 °F 57.2 °F 100% 29.77 in 4.0 mi SSE 11.5 mph 18.4 mph 0.01 in Rain Light Rain
6:34 PM 57.2 °F 57.2 °F 100% 29.77 in 7.0 mi SSE 11.5 mph 19.6 mph 0.01 in Rain Light Rain
6:53 PM 57.9 °F 57.0 °F 97% 29.78 in 8.0 mi SSE 13.8 mph 19.6 mph 0.01 in   Overcast
7:53 PM 57.9 °F 57.0 °F 97% 29.78 in 10.0 mi SSE 13.8 mph 23.0 mph N/A   Overcast
8:28 PM 57.2 °F 55.4 °F 94% 29.77 in 10.0 mi SSE 9.2 mph 26.5 mph N/A   Overcast
8:53 PM 57.9 °F 57.0 °F 97% 29.78 in 10.0 mi SE 10.4 mph 17.3 mph N/A   Overcast
9:04 PM 57.2 °F 55.4 °F 94% 29.77 in 10.0 mi SSE 10.4 mph - N/A   Mostly Cloudy
9:51 PM 57.2 °F 55.4 °F 94% 29.78 in 10.0 mi SE 8.1 mph 17.3 mph N/A   Overcast
9:53 PM 57.0 °F 55.9 °F 96% 29.78 in 10.0 mi SSE 9.2 mph 17.3 mph N/A   Overcast
10:47 PM 57.2 °F 55.4 °F 94% 29.78 in 10.0 mi South 6.9 mph 20.7 mph N/A   Overcast
10:53 PM 57.0 °F 55.9 °F 96% 29.78 in 9.0 mi South 8.1 mph 17.3 mph 0.00 in Rain Light Rain
11:53 PM 55.9 °F 55.0 °F 97% 29.79 in 10.0 mi South 3.5 mph - 0.00 in Rain Light Rain